STARLINK-6066 (56105 NORAD) Tracking and Keplerian Element Data

This shows tracking and keplerian element data for the satellite.

Feedback or suggestion? Click here.




ElementValue
Catalog56105
NameSTARLINK-6066
Epoch Orbit652
Epoch Day127.25001157
Epoch Year2023
RAAN37.7375
Inclination43.0009
Eccentricity0.0001469
Argument of Perigee276.5337
Mean Anonmoly130.8364
Mean Motion15.29934785
Decay Rate-0.00900202
L11 56105U 23046N 23127.25001157 -.00900202 00000+0 -33173-1 0 9990
L22 56105 43.0009 37.7375 0001469 276.5337 130.8364 15.29934785 6521



Live tracking and technical data element details for STARLINK-6066 (NORAD 56105). STARLINK-6066 can be tracked NOW for your location showing map with azimuth and elevation plus other details from your city location.







IsCatalogInMostPopularTable: catalog: 56105, numindb: -1

Insert: records affected: 1


GetName: 56105 STARLINK-6066

Hit Count: inserted at: Sat, 03 Jun 2023 17:21:13 GMT